Regional Weather Roundup
Issued by NWS

Home | Current Version | Previous Version | Graphics & Text | Print | Product List | Glossary On
Versions: 1 2 3 4 5 6 7 8 9 10 11 12 13 14 15 16 17 18 19 20 21 22 23 24 25 26 27 28 29 30 31 32 33 34 35 36 37 38 39 40 41 42 43 44 45 46 47 48 49 50
000
ASUS43 KMKX 250711
RWRWI

WISCONSIN REGIONAL WEATHER ROUNDUP
NATIONAL WEATHER SERVICE MILWAUKEE/SULLIVAN WI
200 AM CDT TUE JUL 25 2017

NOTE: "FAIR" INDICATES FEW OR NO CLOUDS BELOW 12,000 FEET WITH NO
SIGNIFICANT WEATHER AND/OR OBSTRUCTIONS TO VISIBILITY.

WIZ001-002-006>008-014>016-023>028-250800-
NORTHWEST WISCONSIN

CITY           SKY/WX    TMP DP  RH WIND       PRES   REMARKS
SUPERIOR ARPT  NOT AVBL
ASHLAND        FAIR      52  52 100 S3        30.07S FOG
HAYWARD        FAIR      58  55  90 CALM      30.08S
SIREN          FAIR      64  58  82 S7        30.06R
CUMBERLAND     FAIR      61  57  88 S7        30.08S
RICE LAKE      FAIR      61  58  89 SE5       30.09F
CHETEK         FAIR      61  59  93 SE6       30.09F
LADYSMITH      FAIR      61  57  88 SE3       30.12S
EAU CLAIRE     FAIR      63  59  87 S5        30.09R
MENOMONIE      FAIR      61  59  95 SE6       30.09F
NEW RICHMOND   FAIR      65  58  79 S8        30.07S
OSCEOLA        FAIR      67  59  77 S9        30.09R
$$

WIZ003>005-009-010-017-018-250800-
NORTH CENTRAL WISCONSIN

CITY           SKY/WX    TMP DP  RH WIND       PRES   REMARKS
MANITOWISH WTR FAIR      59  59  98 S8        30.13S
ARBOR VITAE    FAIR      61  56  82 S5        30.13F
WOODRUFF       FAIR      61  56  82 S5        30.13F
RHINELANDER    FAIR      56  52  86 SW3       30.16R
EAGLE RIVER    FAIR      55  53  91 CALM      30.14S
LAND O LAKES   FAIR      52  51  99 CALM      30.16R
PHILLIPS       FAIR      59  57  93 SE5       30.11F
TOMAHAWK         N/A     53  51  93 CALM      30.15F
MEDFORD        FAIR      57  54  91 SE5       30.13F
MERRILL        FAIR      52  52 100 CALM      30.16R
$$

WIZ029-030-035-036-043>047-250800-
CENTRAL WISCONSIN

CITY           SKY/WX    TMP DP  RH WIND       PRES   REMARKS
WAUSAU         FAIR      59  52  77 SE3       30.14R
MOSINEE        FAIR      55  52  88 SE3       30.16R
MARSHFIELD     FAIR      59  53  80 S5        30.14R
STEVENS POINT  FAIR      53  51  94 CALM      30.16S
WAUPACA        FAIR      57  56  96 CALM      30.16R
WAUTOMA        FAIR      54  53  97 CALM      30.16R
WISC RAPIDS    FAIR      58  54  86 SE6       30.16R
CAMP DOUGLAS   FAIR      55  55 100 S3        30.13S FOG
$$

WIZ011>013-019>022-031-037>040-048>050-250800-
NORTHEAST WISCONSIN

CITY           SKY/WX    TMP DP  RH WIND       PRES   REMARKS
ANTIGO         FAIR      53  51  92 S6        30.17R
SHAWANO        FAIR      59  54  81 CALM      30.15R
OCONTO         FAIR      53  51  95 CALM      30.14S
STURGEON BAY     N/A     55  52  89 CALM      30.15S
GREEN BAY      FAIR      56  56 100 CALM      30.15R
MANITOWOC      FAIR      53  50  89 CALM      30.15S
APPLETON       FAIR      63  43  48 CALM      30.14S
CLINTONVILLE   FAIR     N/A N/A N/A CALM      30.15R
OSHKOSH        FAIR      56  50  80 CALM      30.14R
$$

WIZ032>034-041-042-053>061-250800-
SOUTHWEST WISCONSIN

CITY           SKY/WX    TMP DP  RH WIND       PRES   REMARKS
LA CROSSE      FAIR      64  60  87 SE7       30.10R
SPARTA         FAIR      53  52  97 CALM      30.13S
VIROQUA        FAIR      60  60  97 CALM      30.14S
BOSCOBEL       FOG       61  60  97 CALM      30.13S VSB 1/2
PRAIRIE DU CHI FAIR      61  59  94 E6        30.10F
PLATTEVILLE    FAIR      61  61  99 E7        30.14S
$$

WIZ056-057-062-063-064-067-068-250800-
SOUTH CENTRAL WISCONSIN

CITY           SKY/WX    TMP DP  RH WIND       PRES   REMARKS
REEDSBURG      FAIR      58  58 100 CALM      30.14S
BARABOO/DELLS  FAIR      56  53  88 CALM      30.15R
LONE ROCK      FAIR      59  58  96 CALM      30.14R FOG
MINERAL POINT  FAIR      61  61 100 SE6       30.15S
MADISON        FAIR      58  53  84 S5        30.15R
MIDDLETON      FAIR      55  55 100 CALM      30.16R
WATERTOWN      FAIR      54  54 100 CALM      30.14S
MONROE         FAIR      59  57  94 SE5       30.15R
JANESVILLE     FAIR      59  57  94 CALM      30.15R
$$

WIZ051-052-058>065-066-070>072-250800-
SOUTHEAST WISCONSIN

CITY           SKY/WX    TMP DP  RH WIND       PRES   REMARKS
MILWAUKEE      FAIR      62  57  83 CALM      30.14S
WAUKESHA       FAIR      54  52  94 CALM      30.16R
MILWAUKEE/TIMM FAIR      55  50  82 CALM      30.15S
RACINE         FAIR      59  57  93 CALM      30.15S
KENOSHA        FAIR      56  55  97 CALM      30.14S
FOND DU LAC    FAIR      53  49  86 CALM      30.14R
SHEBOYGAN      FAIR      51  51 100 CALM      30.14S
WEST BEND      FAIR      52  52 100 CALM      30.15S
JUNEAU         FAIR      55  51  86 CALM      30.15S
$$

LSZ147-162-250800-
LAKE SUPERIOR

STATION/POSITION TIME  TEMP    WIND        PRES    WAVE
                       AIR SEA DIR/SP/G            HT/PER
                 (UTC) (F)     (DEG/KT/KT) (MB)    (FT/S)
W MID LAKE BUOY  0550   56 50  130/  8/  8 1017.9R   0
DEVILS ISLAND    0600   64     150/  8/  9 1017.7S
SAXON HARBOR     0630   58     210/  5/  6 1017.6S
$$

LMZ867-665-643>646-250800-
LAKE MICHIGAN

STATION/POSITION TIME  TEMP    WIND        PRES    WAVE
                       AIR SEA DIR/SP/G            HT/PER
                 (UTC) (F)     (DEG/KT/KT) (MB)    (FT/S)
CHAMBERS ISLAND  0640   56      CALM  /  1 1020.0S
S GREEN BAY BUOY 0700   69 72  140/  8/  8 1020.2
N MID LAKE BUOY  0650   65 66   60/  2/  2 1021.3R   0
NORTHPORT PIER   0640   60        CALM     1020.3S
KEWAUNEE LAKESHO 0648          310/  3/  4 1019.7R
SHEBOYGAN LAKESH 0700   62     310/  3/  3 1020.5R
PORT WASHINGTON  0630   59     280/  2/  3 1021.3S
ATWATER BUOY     0509   67 68   40/  4/  8 1020.7R
MILWAUKEE LAKESH 0650   67      70/  5/  6   N/A
S MID LAKE BUOY  0550   69 70   30/  8/ 10 1020.5R   2/ 6
KENOSHA   LAKESH 0700   66      CALM  /  1 1020.3
$$

TC  - TEMPERATURE IN CELSIUS
VSB - VISIBILITY IN STATUTE MILES
WCI - WIND CHILL INDEX
HX  - HEAT INDEX





USA.gov is the U.S. government's official web portal to all federal, state and local government web resources and services.